Weather Roundup
Issued by NWS Springfield, MO

Home | Current Version | Previous Version | Text Only | Print | Product List | Glossary On
Versions: 1 2 3 4 5 6 7 8 9 10 11 12 13 14 15 16 17 18 19 20 21 22 23 24 25 26 27 28 29 30 31 32 33 34 35 36 37 38 39 40 41 42 43 44 45 46 47 48 49 50
000
NZUS99 KSGF 280257
HRRSGF

HOURLY WEATHER
NATIONAL WEATHER SERVICE SPRINGFIELD MO
1000 PM CDT THU APR 27 2017

......SGF CWA......

CITY           SKY/WX    TMP DP  RH WIND       PRES   REMARKS
SPRINGFIELD    CLOUDY    60  43  53 E10       29.72F
JOPLIN         CLOUDY    56  48  74 E5        29.73R
WEST PLAINS    CLOUDY    58  48  69 SE5       29.82R
ROLLA          CLOUDY    55  48  77 NE9       29.80S

......SURROUNDING SGF CWA......

CITY           SKY/WX    TMP DP  RH WIND       PRES   REMARKS
CHANUTE        MOCLDY    56  48  74 E6        29.71S
PARSONS        CLOUDY    56  48  74 VRB5      29.71S
COFFEYVILLE    CLOUDY    57  49  74 E7        29.69S
EMPORIA        CLOUDY    52  47  83 E8        29.71R
HARRISON AR    CLOUDY    58  46  64 SE12      29.76R

......KANSAS AND MISSOURI......

CITY           SKY/WX    TMP DP  RH WIND       PRES   REMARKS
KANSAS CTY INT PTCLDY    52  46  80 NE5       29.75F
SEDALIA        CLOUDY    56  48  74 NE12      29.76F
ST JOSEPH      CLOUDY    51  50  96 NE7       29.77F
ST LOUIS       CLOUDY    57  46  66 CALM      29.86R
WICHITA        CLOUDY    55  45  68 E17       29.59F
TOPEKA         CLOUDY    53  48  83 E7        29.73R
OLATHE         CLOUDY    51  49  92 NE7       29.73R

......TENNESSEE......

CITY           SKY/WX    TMP DP  RH WIND       PRES   REMARKS
MEMPHIS        NOT AVBL
NASHVILLE      PTCLDY    57  51  80 CALM      29.89R

......ARKANSAS.......

CITY           SKY/WX    TMP DP  RH WIND       PRES   REMARKS
FAYETTEVILLE   CLOUDY    56  53  90 CALM      29.75R
FT SMITH       CLOUDY    63  49  60 E5        29.73R
LITTLE ROCK    PTCLDY    58  54  86 E5        29.77R

......OKLAHOMA.......

CITY           SKY/WX    TMP DP  RH WIND       PRES   REMARKS
TULSA          LGT RAIN  57  51  80 SE13      29.65F
PONCA CITY     CLOUDY    58  44  60 SE16G22   29.62R
MCALESTER      CLOUDY    63  51  65 E6        29.67S
OKLAHOMA CITY  LGT RAIN  60  50  69 SE14      29.61R

......IOWA............

CITY           SKY/WX    TMP DP  RH WIND       PRES   REMARKS
DES MOINES     NOT AVBL
QUAD CITIES    CLEAR     37  34  89 CALM      29.83R

......ILLINOIS........

CITY           SKY/WX    TMP DP  RH WIND       PRES   REMARKS
QUINCY         NOT AVBL
CHICAGO        MOCLDY    44  34  67 SW9       29.82R




USA.gov is the U.S. government's official web portal to all federal, state and local government web resources and services.